Weather Roundup
Issued by NWS

Home | Current Version | Previous Version | Graphics & Text | Print | Product List | Glossary Off
Versions: 1 2 3 4 5 6 7 8 9 10 11 12 13 14 15 16 17 18 19 20 21 22 23 24 25 26 27 28 29 30 31 32 33 34 35 36 37 38 39 40 41 42 43 44 45 46 47 48 49 50

000
NZUS93 KARX 261159
HRRWXR

CURRENT HOURLY OBSERVATIONS ACROSS
MUCH OF THE UPPER MISSISSIPPI VALLEY
NATIONAL WEATHER SERVICE LA CROSSE WI
600 AM CST FRI DEC 26 2014


...SOUTHEAST MINNESOTA...


CITY           SKY/WX    TMP DP  RH WIND       PRES   REMARKS
ROCHESTER      CLEAR     27  26  96 E5        29.84R FOG     WCI  22
ROCHESTER/MAYO CLOUDY    31  30  96 CALM      29.85R
WINONA         CLEAR     28  27  93 CALM      29.89R FOG
AUSTIN         CLEAR     27  25  93 CALM      29.83S
ALBERT LEA     CLEAR     27  27 100 N5        29.85R FOG     WCI  21
DODGE CENTER   CLOUDY    30  30 100 N6        29.84R WCI  24
PRESTON        CLEAR     30  28  92 E3        29.84S
OWATONNA       CLOUDY    32  30  93 N6        29.87R FOG     WCI  26
FARIBAULT      CLOUDY    32  30  93 N6        29.88R FOG     WCI  26
$$

...ELSEWHERE IN MINNESOTA...


CITY           SKY/WX    TMP DP  RH WIND       PRES   REMARKS
MINNEAPOLIS    CLOUDY    32  29  88 N10       29.91R WCI  24
INTNL FALLS    CLOUDY    24  21  88 NW8       30.00R WCI  15
DULUTH         FLURRIES  28  21  75 N9        29.93S WCI  19
RED WING       CLOUDY    34  30  86 CALM      29.89R
REDWOOD FALLS  CLOUDY    31  28  89 N8        29.95R WCI  23
MANKATO        CLOUDY    34  28  80 N12       29.89R WCI  25
WORTHINGTON    CLOUDY    27 -18  13 N17       29.91R WCI  14
FAIRMONT       CLOUDY    32  28  86 N15       29.88R WCI  22
$$

...SOUTHWEST WISCONSIN...


CITY           SKY/WX    TMP DP  RH WIND       PRES   REMARKS
LA CROSSE      CLEAR     25  22  88 CALM      29.88S FOG
PRAIRIE DU CHI PTCLDY    32  29  88 E3        29.87S
BOSCOBEL       PTCLDY    27  25  92 CALM      29.89S FOG
LONE ROCK      NOT AVBL
PLATTEVILLE    PTCLDY    36  32  88 CALM      29.90R
FORT MC COY    CLEAR     23  23 100 CALM      29.89R
CAMP DOUGLAS   FOG       23  23 100 CALM      29.89R VSB 3/4
VIROQUA        FAIR      32  32 100 SE5       29.86R WCI  27
WIS DELLS      NOT AVBL
$$

...ELSEWHERE IN WISCONSIN...


CITY           SKY/WX    TMP DP  RH WIND       PRES   REMARKS
MILWAUKEE      CLOUDY    39  33  79 SW12      29.96R WCI  32
MADISON        MOCLDY    36  33  89 S5        29.91S WCI  32
GREEN BAY      MOCLDY    31  30  96 CALM      29.93R FOG
EAU CLAIRE     NOT AVBL
BLACK RVR FLS  FAIR      21  21 100 CALM      29.88R FOG
MEDFORD        CLOUDY    27  27  97 NE3       29.86S FOG
WAUSAU         CLEAR     27  26  96 CALM      29.88R FOG
WIS RAPIDS     CLEAR     25  23  92 CALM      29.91R FOG
MARSHFIELD     FOG       27  25  92 E5        29.87F VSB 3/4 WCI  22
RICE LAKE      CLOUDY    31  30  95 N8        29.91R FOG     WCI  24
$$

...NORTHEAST IOWA...


CITY           SKY/WX    TMP DP  RH WIND       PRES   REMARKS
DECORAH        CLEAR     36  32  87 CALM      29.84R
MASON CITY     FOG       22  21  96 CALM      29.85R VSB 3/4
CHARLES CITY   CLEAR     32  30  93 CALM      29.84S
OELWEIN        CLEAR     32  30  93 SE7       29.85S WCI  26
$$

...ELSEWHERE IN IOWA...


CITY           SKY/WX    TMP DP  RH WIND       PRES   REMARKS
DES MOINES     PTCLDY    35  29  78 S6        29.85R WCI  30
IOWA CITY      CLEAR     37  32  82 S6        29.91R WCI  32
FORT DODGE     CLOUDY    28  27  93 NW8       29.87R VSB 1/2 WCI  20
$$

...NORTHERN ILLINOIS...


CITY           SKY/WX    TMP DP  RH WIND       PRES   REMARKS
CHICAGO-OHARE  PTCLDY    37  32  82 S9        29.98S WCI  30
CHICAGO-MIDWAY PTCLDY    38  33  82 S9        30.00S WCI  31
MOLINE         PTCLDY    41  33  73 S16G24    29.92R
ROCKFORD       MOCLDY    36  33  89 S8        29.97S WCI  30
PEORIA         PTCLDY    37  32  82 S12       30.00R WCI  29
$$

NOTE: "FAIR" INDICATES FEW OR NO CLOUDS BELOW 12,000 FEET WITH NO
SIGNIFICANT WEATHER AND/OR OBSTRUCTIONS TO VISIBILITY. WIND
SPEEDS ARE IN MILES-PER-HOUR.



USA.gov is the U.S. government's official web portal to all federal, state and local government web resources and services.